Location: Larrial
(48.2758°N, 4.5331°W)
Time: 10:34:21
(UTC+00:00)

XW-2F - Pass Details

Date: 29 November 2021
Orbit: 495 x 515 km, 97.5° (Epoch: 15 January)

Event Time Altitude Azimuth Distance (km) Brightness Sun altitude
Rises 05:26:43 0° 31° (NNE) 2,650 ? -22.4°
Reaches altitude 10° 05:29:43 10° 57° (ENE) 1,756 ? -21.9°
Maximum altitude 05:31:46 14° 90° (E) 1,510 ? -21.5°
Drops below altitude 10° 05:33:49 10° 123° (ESE) 1,747 ? -21.2°
Sets 05:36:46 0° 149° (SSE) 2,626 ? -20.7°
